• In Belarus
  • List of Countries
  • For 7 days
  • Water Temperature
  • Satellite Maps
  • Weather Map
  • Weather Widgets
  • user-avatar
    Login

    Hourly Weather Kandahar

    Today, 20 March, Wednesday

    Time Temperature Precipitation Wind Pressure Humidity
    00:00 +14°C° 0 mm 1 mps 673 mmHg 42%
    01:00 +13°C° 0 mm 1 mps 673 mmHg 44%
    02:00 +13°C° 0 mm 1 mps 673 mmHg 45%
    03:00 +12°C° 0 mm 1 mps 672 mmHg 46%
    04:00 +11°C° 0 mm 0 mps 672 mmHg 48%
    05:00 +11°C° 0 mm 0 mps 673 mmHg 46%
    06:00 +13°C° 0 mm 1 mps 673 mmHg 44%
    07:00 +13°C° 0 mm 1 mps 673 mmHg 42%
    08:00 +15°C° 0 mm 1 mps 674 mmHg 38%
    09:00 +16°C° 0 mm 1 mps 674 mmHg 33%
    10:00 +18°C° 0 mm 1 mps 674 mmHg 28%
    11:00 +19°C° 0 mm 1 mps 674 mmHg 26%
    12:00 +18°C° 0 mm 2 mps 674 mmHg 24%
    13:00 +19°C° 0 mm 2 mps 674 mmHg 22%
    14:00 +19°C° 0 mm 2 mps 674 mmHg 22%
    15:00 +20°C° 0 mm 2 mps 674 mmHg 21%
    16:00 +20°C° 0 mm 2 mps 674 mmHg 21%
    17:00 +19°C° 0 mm 2 mps 674 mmHg 24%
    18:00 +20°C° 0 mm 1 mps 674 mmHg 28%
    19:00 +19°C° 0 mm 1 mps 674 mmHg 31%
    20:00 +18°C° 0 mm 1 mps 674 mmHg 32%
    21:00 +18°C° 0 mm 1 mps 675 mmHg 33%
    22:00 +16°C° 0 mm 2 mps 675 mmHg 33%
    23:00 +16°C° 0 mm 2 mps 674 mmHg 34%

    Tomorrow, 21 March, Thursday

    Time Temperature Precipitation Wind Pressure Humidity
    00:00 +15°C° 0 mm 2 mps 674 mmHg 35%
    01:00 +15°C° 0 mm 2 mps 674 mmHg 36%
    02:00 +14°C° 0 mm 2 mps 674 mmHg 36%
    03:00 +14°C° 0 mm 2 mps 674 mmHg 37%
    04:00 +12°C° 0 mm 3 mps 673 mmHg 37%
    05:00 +12°C° 0 mm 3 mps 674 mmHg 39%
    06:00 +12°C° 0 mm 4 mps 674 mmHg 41%
    07:00 +12°C° 0 mm 4 mps 675 mmHg 42%
    08:00 +14°C° 0 mm 4 mps 675 mmHg 37%
    09:00 +17°C° 0 mm 4 mps 676 mmHg 31%
    10:00 +19°C° 0 mm 4 mps 676 mmHg 25%
    11:00 +20°C° 0 mm 4 mps 676 mmHg 22%
    12:00 +20°C° 0 mm 3 mps 676 mmHg 20%
    13:00 +21°C° 0 mm 3 mps 675 mmHg 17%
    14:00 +22°C° 0 mm 3 mps 675 mmHg 17%
    15:00 +22°C° 0 mm 3 mps 675 mmHg 16%
    16:00 +22°C° 0 mm 3 mps 675 mmHg 15%
    17:00 +21°C° 0 mm 3 mps 675 mmHg 18%
    18:00 +20°C° 0 mm 3 mps 675 mmHg 21%
    19:00 +19°C° 0 mm 4 mps 675 mmHg 24%
    20:00 +19°C° 0 mm 4 mps 675 mmHg 28%
    21:00 +18°C° 0 mm 4 mps 675 mmHg 31%
    22:00 +16°C° 0 mm 5 mps 675 mmHg 34%
    23:00 +16°C° 0 mm 5 mps 675 mmHg 36%

    Day after tomorrow, 22 March, Friday

    Time Temperature Precipitation Wind Pressure Humidity
    00:00 +15°C° 0 mm 4 mps 674 mmHg 38%
    01:00 +14°C° 0 mm 4 mps 674 mmHg 40%
    02:00 +14°C° 0.1 mm 5 mps 674 mmHg 41%
    03:00 +13°C° 0.1 mm 5 mps 674 mmHg 43%
    04:00 +13°C° 0.1 mm 5 mps 674 mmHg 44%
    05:00 +13°C° 0.1 mm 5 mps 674 mmHg 44%
    06:00 +13°C° 0.1 mm 6 mps 674 mmHg 44%
    07:00 +13°C° 0.1 mm 6 mps 675 mmHg 44%
    08:00 +15°C° 0 mm 6 mps 675 mmHg 40%
    09:00 +17°C° 0 mm 6 mps 676 mmHg 37%
    10:00 +20°C° 0 mm 5 mps 676 mmHg 33%
    11:00 +22°C° 0 mm 5 mps 676 mmHg 30%
    12:00 +23°C° 0 mm 5 mps 676 mmHg 27%
    13:00 +25°C° 0 mm 4 mps 676 mmHg 24%
    14:00 +24°C° 0 mm 6 mps 675 mmHg 24%
    15:00 +24°C° 0 mm 7 mps 675 mmHg 24%
    16:00 +24°C° 0 mm 8 mps 675 mmHg 24%
    17:00 +23°C° 0 mm 7 mps 675 mmHg 29%
    18:00 +22°C° 0 mm 6 mps 674 mmHg 34%
    19:00 +20°C° 0 mm 5 mps 674 mmHg 39%
    20:00 +19°C° 0.1 mm 4 mps 675 mmHg 43%
    21:00 +18°C° 0.1 mm 4 mps 675 mmHg 48%
    22:00 +18°C° 0.1 mm 3 mps 675 mmHg 52%
    23:00 +17°C° 0.1 mm 3 mps 675 mmHg 54%

    23 March, Saturday

    Time Temperature Precipitation Wind Pressure Humidity
    00:00 +17°C° 0.1 mm 2 mps 675 mmHg 56%
    01:00 +16°C° 0.1 mm 2 mps 674 mmHg 59%
    02:00 +16°C° 0.2 mm 2 mps 674 mmHg 61%
    03:00 +14°C° 0.2 mm 3 mps 674 mmHg 63%
    04:00 +14°C° 0.2 mm 3 mps 674 mmHg 65%
    05:00 +14°C° 0.3 mm 3 mps 674 mmHg 64%
    06:00 +14°C° 0.3 mm 4 mps 675 mmHg 64%
    07:00 +14°C° 0.3 mm 4 mps 675 mmHg 63%
    08:00 +15°C° 0.2 mm 4 mps 676 mmHg 59%
    09:00 +18°C° 0.2 mm 4 mps 676 mmHg 54%
    10:00 +19°C° 0.2 mm 4 mps 677 mmHg 50%
    11:00 +20°C° 0 mm 4 mps 677 mmHg 46%
    12:00 +21°C° 0 mm 4 mps 676 mmHg 42%
    13:00 +22°C° 0 mm 4 mps 676 mmHg 37%
    14:00 +22°C° 0 mm 4 mps 675 mmHg 37%
    15:00 +22°C° 0 mm 4 mps 675 mmHg 37%
    16:00 +22°C° 0 mm 3 mps 675 mmHg 37%
    17:00 +21°C° 0.2 mm 3 mps 675 mmHg 42%
    18:00 +21°C° 0.2 mm 3 mps 675 mmHg 46%
    19:00 +20°C° 0.2 mm 3 mps 675 mmHg 50%
    20:00 +19°C° 0.6 mm 2 mps 675 mmHg 53%
    21:00 +18°C° 0.6 mm 2 mps 675 mmHg 56%
    22:00 +18°C° 0.6 mm 2 mps 675 mmHg 58%
    23:00 +17°C° 0 mm 2 mps 675 mmHg 58%

    24 March, Sunday

    Time Temperature Precipitation Wind Pressure Humidity
    00:00 +17°C° 0 mm 2 mps 675 mmHg 57%
    01:00 +17°C° 0 mm 2 mps 674 mmHg 57%
    02:00 +16°C° 0 mm 3 mps 674 mmHg 57%
    03:00 +16°C° 0 mm 3 mps 674 mmHg 57%
    04:00 +14°C° 0 mm 3 mps 674 mmHg 57%
    05:00 +16°C° 0 mm 3 mps 674 mmHg 55%
    06:00 +16°C° 0 mm 3 mps 675 mmHg 53%
    07:00 +15°C° 0 mm 4 mps 675 mmHg 51%
    08:00 +17°C° 0 mm 4 mps 675 mmHg 46%
    09:00 +19°C° 0 mm 4 mps 676 mmHg 41%
    10:00 +21°C° 0 mm 4 mps 676 mmHg 36%
    11:00 +22°C° 0 mm 3 mps 675 mmHg 34%
    12:00 +22°C° 0 mm 3 mps 675 mmHg 32%
    13:00 +24°C° 0 mm 2 mps 675 mmHg 30%
    14:00 +24°C° 0.1 mm 2 mps 674 mmHg 32%
    15:00 +24°C° 0.1 mm 2 mps 674 mmHg 33%
    16:00 +24°C° 0.1 mm 2 mps 673 mmHg 34%
    17:00 +23°C° 0.3 mm 2 mps 673 mmHg 38%
    18:00 +21°C° 0.3 mm 2 mps 673 mmHg 42%
    19:00 +21°C° 0.3 mm 2 mps 673 mmHg 46%
    20:00 +20°C° 0.8 mm 2 mps 673 mmHg 51%
    21:00 +19°C° 0.8 mm 2 mps 673 mmHg 56%
    22:00 +18°C° 0.8 mm 2 mps 674 mmHg 61%
    23:00 +17°C° 1.1 mm 3 mps 673 mmHg 64%

    25 March, Monday

    Time Temperature Precipitation Wind Pressure Humidity
    00:00 +17°C° 1.1 mm 3 mps 673 mmHg 67%
    01:00 +16°C° 1.1 mm 3 mps 672 mmHg 70%
    02:00 +16°C° 0.4 mm 3 mps 672 mmHg 70%
    03:00 +16°C° 0.4 mm 3 mps 672 mmHg 70%
    04:00 +14°C° 0.4 mm 3 mps 672 mmHg 69%
    05:00 +16°C° 0.2 mm 3 mps 673 mmHg 68%
    06:00 +15°C° 0.2 mm 4 mps 673 mmHg 68%
    07:00 +15°C° 0.2 mm 4 mps 674 mmHg 67%
    08:00 +17°C° 0.3 mm 4 mps 674 mmHg 62%
    09:00 +18°C° 0.3 mm 4 mps 674 mmHg 57%
    10:00 +20°C° 0.3 mm 4 mps 675 mmHg 53%
    11:00 +20°C° 0.8 mm 3 mps 674 mmHg 49%
    12:00 +21°C° 0.8 mm 3 mps 674 mmHg 46%
    13:00 +22°C° 0.8 mm 3 mps 674 mmHg 43%
    14:00 +22°C° 0.5 mm 4 mps 674 mmHg 41%
    15:00 +23°C° 0.5 mm 5 mps 674 mmHg 40%
    16:00 +23°C° 0.5 mm 6 mps 674 mmHg 38%
    17:00 +22°C° 0 mm 5 mps 674 mmHg 43%
    18:00 +20°C° 0 mm 4 mps 674 mmHg 47%
    19:00 +19°C° 0 mm 3 mps 674 mmHg 52%
    20:00 +19°C° 0 mm 3 mps 675 mmHg 55%
    21:00 +18°C° 0 mm 2 mps 675 mmHg 58%
    22:00 +18°C° 0 mm 1 mps 675 mmHg 62%
    23:00 +18°C° 0 mm 1 mps 675 mmHg 62%
    Show more